[[{"header":{"parameterUnit":"m.s-1","parameterCategory":1,"la1":30.2991,"la2":30.254,"lo1":-89.0895,"lo2":-89.0444,"dy":0.0017,"dx":0.0017,"nx":28,"ny":28,"refTime":"2023-07-23T03:00:00:Z","depth":0,"parameterNumber":2,"parameterNumberName":"U-component_of_WINDS"},"data":[0,0,0,0,0,0,0,0,0,0,0,0,0,0,0,0,0,0,0,0,0,0,0,0,0,0,0,0,0,0,0,0,0,0,0,0,0,0,0,0,0,0,0,0,0,0,0,0,0,0,0,0,0,0,0,0,0,0,1.7696,1.7698,0,1.7908,1.791,1.7912,1.7952,1.795,1.7948,1.7947,1.8171,1.8178,1.8185,0,0,0,0,0,0,0,0,0,0,0,0,0,1.733,1.7337,1.7695,1.7698,1.7701,1.7907,1.791,1.7913,1.7952,1.795,1.7948,1.7946,1.8168,1.8177,1.8186,0,0,0,0,0,0,0,0,0,0,0,0,0,1.751,1.7339,1.7695,1.7745,1.7752,1.7907,1.791,1.7914,1.7953,1.795,1.7947,1.7945,1.8165,1.8176,1.8187,1.831,0,0,1.8222,1.8227,0,0,0,0,0,0,0,0,1.75,1.7524,1.7735,1.7742,1.7749,1.79,1.7864,1.8047,1.7953,1.7877,1.7947,1.7944,1.8083,1.8101,1.8147,1.832,1.833,1.8223,1.823,1.8235,1.8238,0,0,0,0,0,0,0,1.7488,1.7515,1.778,1.7738,1.7747,1.7759,1.7782,1.7899,1.7992,1.7883,1.7886,1.7911,1.8087,1.8136,1.8152,1.8333,1.8223,1.8233,1.824,1.8244,1.8618,1.8621,0,0,0,0,0,0,1.7465,1.7504,1.7773,1.7786,1.7616,1.7767,1.7793,1.7855,1.7991,1.8009,1.7913,1.7912,1.8118,1.8139,1.816,1.8313,1.8235,1.8245,1.8252,1.8615,1.8619,1.8622,0,0,0,0,0,0,1.7457,1.7489,1.7764,1.7646,1.7682,1.7777,1.7846,1.786,1.7909,1.8013,1.8031,1.7945,1.8117,1.8145,1.8272,1.8321,1.8251,1.8261,1.8611,1.8616,1.862,1.8618,0,0,0,0,0,0,1.7447,1.7486,1.7532,1.7647,1.7688,1.787,1.7849,1.7866,1.7928,1.7929,1.8048,1.8066,1.8117,1.8255,1.8283,1.8335,1.827,1.8607,1.8613,1.8619,1.8614,1.8622,1.8628,0,0,0,0,0,1.7434,1.7524,1.7534,1.7566,1.7747,1.7873,1.7897,1.7952,1.7932,1.798,1.8047,1.8062,1.8311,1.8267,1.83,1.8356,1.8604,1.8612,1.8618,1.8611,1.862,1.8628,0,0,0,0,0,0,1.7414,1.754,1.7552,1.7682,1.7766,1.7879,1.7941,1.796,1.8053,1.805,1.8117,1.8143,1.8267,1.8325,1.8274,1.8482,1.8457,1.847,1.844,1.845,1.8457,1.8441,1.8279,0,0,0,0,0,1.7425,1.7514,1.762,1.7724,1.7766,1.7846,1.7903,1.7938,1.8029,1.8065,1.8141,1.8231,1.8329,1.8393,1.8489,1.8622,1.865,1.8677,1.8685,1.869,1.8701,1.8777,1.8791,1.8645,1.8645,1.8645,0,0,1.7448,1.7528,1.7581,1.7723,1.7792,1.7885,1.7876,1.7975,1.8045,1.8081,1.8205,1.8264,1.8369,1.8499,1.8561,1.8551,1.8748,1.8699,1.8703,1.8711,1.8786,1.8799,1.8811,1.865,1.8649,1.8648,0,0,1.7538,1.7606,1.7701,1.777,1.7875,1.7927,1.795,1.8061,1.81,1.8226,1.8254,1.834,1.8508,1.8581,1.8641,1.8758,1.8776,1.8788,1.8826,1.8899,1.8911,1.8921,1.8963,1.8978,1.8799,1.8799,1.8799,0,1.7554,1.7693,1.7748,1.7845,1.7907,1.7942,1.8039,1.8105,1.8236,1.8279,1.8266,1.8477,1.855,1.8699,1.8727,1.8774,1.8803,1.8775,1.8904,1.8915,1.8926,1.8967,1.8983,1.88,1.88,1.88,1.8799,0,1.7708,1.7805,1.7869,1.7992,1.8062,1.8159,1.823,1.8294,1.8323,1.8378,1.8506,1.8594,1.8709,1.8747,1.8777,1.8901,1.8891,1.889,1.8866,1.8939,1.8979,1.8996,1.8801,1.88,1.88,1.88,0,0,1.7792,1.7944,1.7966,1.8023,1.8141,1.8217,1.8317,1.8427,1.8481,1.8571,1.8657,1.8798,1.8798,1.8865,1.8904,1.8967,1.9055,1.8959,1.8963,1.8974,1.9198,1.9197,1.9215,1.9068,1.9071,1.9074,1.9189,0,1.7896,1.8071,1.8123,1.8272,1.8362,1.8397,1.8483,1.8566,1.862,1.8706,1.8767,1.8866,1.8858,1.8899,1.8963,1.9031,1.9101,1.9023,1.915,1.9154,1.9122,1.9235,1.9236,1.934,1.9205,1.9207,1.9209,0,1.804,1.813,1.8287,1.8393,1.8433,1.8509,1.8615,1.8696,1.8792,1.8827,1.8901,1.8935,1.9042,1.9011,1.916,1.9106,1.9161,1.9202,1.9208,1.9222,1.9186,1.9253,1.9375,1.939,1.9234,1.9232,1.9231,0,1.8085,1.8246,1.836,1.8408,1.8535,1.8588,1.8644,1.8736,1.8799,1.8892,1.8934,1.9039,1.9097,1.9178,1.924,1.9212,1.9384,1.9359,1.9417,1.9416,1.9452,1.9449,1.9584,1.9487,1.9487,1.9487,1.9486,0,1.8196,1.829,1.8382,1.8453,1.856,1.862,1.8726,1.8784,1.8866,1.895,1.8987,1.9065,1.9141,1.9231,1.928,1.9396,1.9422,1.9455,1.9467,1.9451,1.9447,1.9488,1.9483,1.9491,1.949,1.9489,1.9488,0,1.8264,1.8329,1.8456,1.8566,1.8595,1.867,1.8765,1.8836,1.8891,1.8996,1.9025,1.9112,1.9219,1.9288,1.9425,1.9458,1.9586,1.9596,1.9552,1.9558,1.9613,1.9607,1.978,1.9806,1.9691,1.9692,1.9693,0,1.833,1.8403,1.852,1.8578,1.8633,1.8726,1.879,1.8853,1.8918,1.9032,1.909,1.9198,1.9288,1.9458,1.9535,1.964,1.9653,1.9707,1.9669,1.9652,1.9654,1.9649,1.9657,1.9713,1.9713,1.9714,1.9715,0,1.844,1.8469,1.8558,1.866,1.8735,1.8818,1.8902,1.8948,1.9025,1.9097,1.9205,1.9275,1.9414,1.9522,1.9634,1.9694,1.9718,1.9726,1.9745,1.973,1.9702,1.9718,1.9569,1.9722,1.9721,1.972,1.972,1.972,1.851,1.8577,1.8669,1.8768,1.8837,1.8914,1.8986,1.905,1.914,1.9257,1.9289,1.9402,1.9497,1.965,1.9711,1.9803,1.9796,1.9824,1.9831,1.9837,1.9838,1.9687,1.9823,1.9823,1.9823,1.9823,1.9823,0,1.8622,1.8683,1.8773,1.8888,1.8967,1.898,1.9074,1.9139,1.9237,1.9322,1.941,1.9535,1.964,1.9725,1.9834,1.989,1.9904,1.9917,1.9913,1.9927,1.9837,1.9809,1.9904,1.9904,1.9904,1.9904,1.9904,1.9904,1.869,1.8803,1.8843,1.8992,1.9053,1.9163,1.9215,1.9287,1.9355,1.9492,1.9579,1.9633,1.9719,1.9834,1.9932,1.9954,1.9993,2.0003,2.0028,1.9942,1.9933,1.9925,1.9899,2.0011,2.0011,2.0111,2.0111,2.0112]},{"header":{"parameterUnit":"m.s-1","parameterCategory":1,"la1":30.2991,"la2":30.254,"lo1":-89.0895,"lo2":-89.0444,"dy":0.0017,"dx":0.0017,"nx":28,"ny":28,"refTime":"2023-07-23T03:00:00:Z","depth":0,"parameterNumber":3,"parameterNumberName":"V-component_of_WINDS"},"data":[0,0,0,0,0,0,0,0,0,0,0,0,0,0,0,0,0,0,0,0,0,0,0,0,0,0,0,0,0,0,0,0,0,0,0,0,0,0,0,0,0,0,0,0,0,0,0,0,0,0,0,0,0,0,0,0,0,0,2.563,2.5631,0,2.5661,2.5661,2.5662,2.5666,2.5666,2.5665,2.5665,2.5693,2.5694,2.5695,0,0,0,0,0,0,0,0,0,0,0,0,0,2.557,2.5571,2.563,2.5631,2.5631,2.5661,2.5662,2.5662,2.5666,2.5666,2.5665,2.5665,2.5693,2.5694,2.5695,0,0,0,0,0,0,0,0,0,0,0,0,0,2.5598,2.5572,2.563,2.5637,2.5638,2.5661,2.5662,2.5662,2.5666,2.5666,2.5665,2.5665,2.5692,2.5694,2.5695,2.5713,0,0,2.57,2.57,0,0,0,0,0,0,0,0,2.5596,2.56,2.5636,2.5637,2.5638,2.5659,2.565,2.5679,2.5666,2.5655,2.5665,2.5665,2.5682,2.5684,2.5691,2.5714,2.5715,2.57,2.5701,2.5701,2.5702,0,0,0,0,0,0,0,2.5594,2.5599,2.5642,2.5636,2.5637,2.5637,2.564,2.5656,2.567,2.5656,2.5657,2.566,2.5682,2.5689,2.5691,2.5715,2.57,2.5701,2.5702,2.5703,2.5752,2.5752,0,0,0,0,0,0,2.5592,2.5597,2.5641,2.5643,2.5616,2.5638,2.5642,2.5653,2.567,2.5673,2.5661,2.566,2.5687,2.569,2.5692,2.5713,2.5701,2.5703,2.5704,2.5752,2.5752,2.5753,0,0,0,0,0,0,2.5591,2.5596,2.564,2.562,2.5626,2.564,2.5652,2.5654,2.5661,2.5674,2.5676,2.5666,2.5687,2.569,2.5707,2.5714,2.5703,2.5705,2.5751,2.5752,2.5752,2.5754,0,0,0,0,0,0,2.5589,2.5595,2.5604,2.5621,2.5627,2.5656,2.5652,2.5654,2.5664,2.5664,2.5679,2.5681,2.5687,2.5705,2.5709,2.5715,2.5706,2.5751,2.5751,2.5752,2.5753,2.5755,2.5756,0,0,0,0,0,2.5587,2.5602,2.5604,2.5609,2.5638,2.5657,2.566,2.5668,2.5664,2.5671,2.5679,2.568,2.5712,2.5707,2.5711,2.5718,2.575,2.5751,2.5752,2.5753,2.5754,2.5756,0,0,0,0,0,0,2.5585,2.5605,2.5607,2.5629,2.5641,2.5657,2.5667,2.5669,2.5682,2.5681,2.5688,2.5692,2.5708,2.5715,2.5708,2.5735,2.5731,2.5733,2.573,2.5731,2.5733,2.573,2.5707,0,0,0,0,0,2.5587,2.5602,2.5618,2.5636,2.5642,2.5653,2.5662,2.5667,2.5679,2.5684,2.5693,2.5704,2.5716,2.5724,2.5737,2.5754,2.5757,2.5761,2.5762,2.5763,2.5765,2.5773,2.5774,2.5756,2.5756,2.5756,0,0,2.5592,2.5605,2.5614,2.5636,2.5646,2.566,2.5658,2.5673,2.5682,2.5686,2.5702,2.5709,2.5722,2.5739,2.5747,2.5745,2.577,2.5764,2.5765,2.5766,2.5774,2.5775,2.5777,2.5756,2.5756,2.5756,0,0,2.5607,2.5619,2.5635,2.5645,2.566,2.5667,2.567,2.5686,2.5691,2.5708,2.571,2.5721,2.5743,2.5751,2.5758,2.5774,2.5775,2.5778,2.5784,2.5791,2.5793,2.5794,2.5798,2.58,2.5779,2.5779,2.5779,0,2.5611,2.5633,2.5642,2.5656,2.5665,2.567,2.5684,2.5693,2.5711,2.5716,2.5714,2.574,2.5749,2.5767,2.5771,2.5777,2.5779,2.5776,2.5792,2.5793,2.5795,2.5799,2.5801,2.578,2.578,2.5779,2.5779,0,2.5635,2.5651,2.5661,2.5679,2.5689,2.5703,2.5712,2.5721,2.5724,2.5731,2.5747,2.5757,2.5771,2.5775,2.5779,2.5793,2.5792,2.5791,2.5787,2.5797,2.5801,2.5802,2.578,2.578,2.578,2.578,0,0,2.5651,2.5673,2.5677,2.5684,2.57,2.5711,2.5725,2.5739,2.5745,2.5757,2.5767,2.5785,2.5784,2.5792,2.5796,2.5803,2.5813,2.58,2.5801,2.5801,2.5828,2.5828,2.583,2.5813,2.5814,2.5814,2.5826,0,2.5667,2.5693,2.57,2.5721,2.5734,2.5737,2.5749,2.5759,2.5765,2.5776,2.5782,2.5794,2.5792,2.5797,2.5804,2.581,2.5818,2.5809,2.5821,2.5822,2.5818,2.5832,2.5833,2.5844,2.5828,2.5828,2.5829,0,2.569,2.5703,2.5725,2.5738,2.5744,2.5754,2.5767,2.5777,2.5788,2.5792,2.58,2.5803,2.5815,2.5811,2.5826,2.582,2.5826,2.5829,2.583,2.5831,2.5825,2.5832,2.5848,2.5849,2.5832,2.5831,2.5831,0,2.5697,2.572,2.5736,2.5742,2.5758,2.5765,2.5772,2.5783,2.579,2.58,2.5805,2.5816,2.5822,2.583,2.5836,2.5832,2.585,2.5847,2.5853,2.5852,2.5856,2.5856,2.5871,2.5861,2.5861,2.5861,2.5861,0,2.5714,2.5727,2.5739,2.5749,2.5762,2.577,2.5783,2.579,2.5799,2.5809,2.5812,2.5821,2.5828,2.5837,2.5841,2.5852,2.5855,2.5857,2.5858,2.5857,2.5856,2.586,2.5859,2.5861,2.5861,2.5861,2.5861,0,2.5724,2.5733,2.575,2.5764,2.5768,2.5777,2.5788,2.5797,2.5803,2.5815,2.5818,2.5827,2.5838,2.5844,2.5857,2.586,2.5872,2.5873,2.5869,2.5869,2.5874,2.5873,2.5892,2.5895,2.5883,2.5883,2.5883,0,2.5734,2.5744,2.5759,2.5766,2.5773,2.5785,2.5792,2.5799,2.5807,2.5819,2.5826,2.5837,2.5846,2.5863,2.587,2.5879,2.588,2.5886,2.5881,2.5879,2.5879,2.5878,2.5878,2.5886,2.5886,2.5886,2.5887,0,2.575,2.5753,2.5765,2.5777,2.5786,2.5796,2.5806,2.5811,2.582,2.5828,2.5839,2.5846,2.586,2.587,2.5881,2.5886,2.5887,2.5888,2.589,2.5888,2.5885,2.5885,2.587,2.5887,2.5887,2.5887,2.5887,2.5887,2.5759,2.5768,2.5779,2.5791,2.5799,2.5808,2.5817,2.5824,2.5834,2.5846,2.5849,2.586,2.5869,2.5883,2.5889,2.5897,2.5896,2.5898,2.5899,2.5899,2.5899,2.5884,2.5899,2.5899,2.5899,2.5899,2.5899,0,2.5774,2.5781,2.5792,2.5806,2.5815,2.5817,2.5827,2.5834,2.5845,2.5853,2.5862,2.5874,2.5884,2.5892,2.5901,2.5906,2.5907,2.5908,2.5908,2.5909,2.59,2.5897,2.5908,2.5908,2.5908,2.5908,2.5908,2.5908,2.5782,2.5797,2.5801,2.5819,2.5826,2.5838,2.5843,2.5851,2.5858,2.5871,2.588,2.5885,2.5893,2.5903,2.5911,2.5913,2.5916,2.5917,2.5919,2.591,2.5909,2.5909,2.5906,2.5918,2.5918,2.5927,2.5927,2.5927]}]]